Location: Arborea
(39.7744°N, 8.5819°E)
Time: 03:19:01
(UTC+00:00)

Cosmos 1953 - Pass Details

Date: 02 June 2022
Orbit: 533 x 555 km, 82.5° (Epoch: 04 July)

Event Time Altitude Azimuth Distance (km) Brightness Sun altitude
Rises 22:57:58 0° 355° (N) 2,709 7.1 -27.7°
Reaches altitude 10° 23:00:09 10° 358° (N) 1,809 5.9 -27.7°
Enters shadow 23:02:44 38° 13° (NNE) 839 3.6 -27.8°
